www.pogodaiklimat.ru

Погода и климат >> Архив погоды >> Мексика >> Orizaba


ПОГОДА в Orizaba

  • Прогноз погоды в Orizaba
  • Монитор погоды в Orizaba
  • Климат города

АРХИВ ПОГОДЫ в Orizaba

Время (UTC), дата Ветер
(напр.,м/с)
 
Видим.   Явления Облачность Т
(С)
Тd
(С)
f
(%)
Тe
(С)
Тes
(С)
Комфортность P
(гПа)
Po
(гПа)
Тmin
(С)
Tmax
(С)
R
(мм)
R24
(мм)
S
(см)
12 16.01 С 1 25 км 9/1 400 м
[St Ac und]
+9.6 +7.4 86 +9 +9 1023.3 882.0 +9.6 +18.1
15 16.01 СВ 2
{3}
30 км 9/0 2000 м
[Ac und]
+10.8 +6.2 73 +10 +11 1025.9 884.0
18 16.01 В 3 30 км 10/0 2000 м
[]
+14.8 +9.2 69 +14 +19 1026.5 884.8 +9.5 +15.0
21 16.01 В 2
{7}
30 км 10/0
[Ac As]
+16.2 +9.5 64 +16 +19 1023.9 883.0
00 17.01 В 2 28 км 10/6 300 м
[St Ac As]
+13.8 +9.9 77 +13 +13 1023.9 883.5 +9.5 +16.2
06 17.01 В 1 10 км в посл. час морось 10/10 200 м
[St]
+11.8 +9.9 88 +12 +12 1026.8 886.1 0.0
09 17.01 В 1
{5}
15 км слабая морось 10/10 300 м
[Frnb]
+11.5 +10.1 91 +11 +11 1026.7 885.5 0.0
12 17.01 В 1 15 км {морось} 9/4 300 м
[St Ac und]
+11.2 +11.2 100 +11 +11 1026.9 885.4 0.0
15 17.01 В 2
{4}
30 км 10/3 400 м
[St As op]
+12.3 +11.0 92 +11 +12 1029.1 887.1
18 17.01 В 3 30 км 10/4 500 м
[St As op]
+14.4 +10.4 77 +13 +15 1028.6 886.9 +11.2 +14.4
21 17.01 В 2
{4}
10 км 10/10 300 м
[St]
+12.0 +10.4 90 +11 +11 1026.3 885.1
00 18.01 В 1 5000 м слабая переохл. морось (гололёд) 10/10 300 м
[Frnb]
+11.0 +10.5 97 +11 +11 1026.3 885.1 0.2
03 18.01 СВ 1
{5}
500 м слабая морось {туман} ?/? +10.4 +10.4 100 +10 +10 1027.7 886.2 1
06 18.01 В 1 10 км {морось} 10/10 300 м
[St]
+10.3 +10.3 100 +10 +10 1028.4 886.3 2
09 18.01 СВ 1
{5}
30 км 1/0 2000 м
[Ac trans]
+9.5 +9.5 100 +9 +9 1026.7 884.6
12 18.01 СВ 1 20 км 9/9 300 м
[St]
+7.6 +7.6 100 +6 +6 1026.4 883.9 +7.6 +14.5
15 18.01 СВ 2
{4}
30 км 9/0 2000 м
[Ac und Ci fib]
+10.9 +9.7 92 +9 +11 1027.6 884.8
18 18.01 В 3 30 км 9/1 700 м
[Cu hum Ac und]
+16.4 +11.2 71 +16 +20 1026.4 884.4 +7.6 +16.8
21 18.01 В 2
{5}
15 км 10/6 500 м
[St As op]
+16.4 +12.7 79 +17 +17 1022.5 881.8
00 19.01 В 2 15 км 10/4 300 м
[St As op]
+14.4 +11.7 84 +14 +14 1021.5 881.7 +7.6 +17.9
03 19.01 С 1 800 м туман ?/? +12.5 +12.3 99 +12 +12 1022.5 882.9
06 19.01 штиль 0 10 км {туман} 10/8 120 м
[St As op]
+12.2 +12.2 100 +11 +11 1022.9 882.9 +7.6 +17.9
09 19.01 С 1 25 км 9/1 400 м
[St Ac und]
+11.8 +11.5 98 +12 +12 1018.4 881.3
12 19.01 С 1 25 км 9/1 400 м
[St Ac und]
+11.5 +11.2 98 +11 +11 1020.3 881.2 +11.5 +17.9
15 19.01 ЮВ 1
{3}
30 км 10/0 2000 м
[Ac As]
+13.2 +11.1 87 +13 +15 1023.1 882.2
18 19.01 ЮВ 3 30 км 9/1 700 м
[Cu hum Ac und Ci fib]
+18.1 +13.6 75 +18 +24 1021.5 881.3 +11.5 +18.2
21 19.01 ЮВ 1
{5}
15 км 10/6 500 м
[St As op]
+18.2 +13.5 74 +20 +20 1017.7 878.8
00 20.01 Ю 1 10 км слабая морось 10/10 300 м
[Frnb]
+14.8 +13.3 91 +15 +15 1017.0 878.6 0.0
03 20.01 штиль 0 20 км слабая морось 10/10 400 м
[Frnb]
+13.8 +13.3 97 +13 +13 1018.4 880.0 0.3
06 20.01 штиль 0 20 км {морось} 10/10 300 м
[St]
+13.5 +13.5 100 +13 +13 1018.8 880.0 0.4
09 20.01 штиль 0 20 км 10/10 400 м
[St]
+13.3 +13.0 98 +13 +13 1018.2 878.8
12 20.01 штиль 0 25 км 4/4 400 м
[St]
+12.5 +11.8 95 +12 +12 1018.5 878.7 +20.3
15 20.01 штиль 0 30 км 4/0
[Ci fib]
+12.8 +11.4 91 +12 +18 1020.0 879.8
18 20.01 С 1
{4}
30 км 4/4 500 м
[Cu hum]
+19.6 +13.2 67 +22 +32 комфорт 1018.9 879.5 +11.5 +20.2
21 20.01 ЮВ 1
{4}
30 км 10/6 500 м
[St As op]
+18.8 +13.7 72 +21 +22 комфорт 1015.8 877.4
00 21.01 ЮВ 1 30 км 10/5 300 м
[St As op]
+17.4 +13.8 79 +18 +18 1015.2 877.5 +10.8 +21.0
03 21.01 штиль 0 20 км 10/10 400 м
[St]
+15.8 +13.4 86 +16 +16 1016.9 874.9
06 21.01 штиль 0 20 км 10/10 400 м
[St]
+14.3 +12.0 86 +14 +14 1016.6 878.7 +10.8 +21.0
09 21.01 штиль 0 30 км ясно +11.0 +10.0 94 +10 +10 1015.9 877.3
12 21.01 штиль 0 30 км ясно +9.9 +8.6 92 +9 +9 1016.6 877.0 +9.9 +21.0
15 21.01 штиль 0 30 км ясно +12.2 +9.4 83 +12 +17 1018.6 878.1
18 21.01 ЮВ 1
{3}
30 км 4/0
[Ci fib]
+22.2 +13.9 59 +25 +40 комфорт 1017.3 877.7 +9.0 +22.6
21 21.01 ЮВ 1
{4}
30 км 3/0
[Ci fib]
+23.9 +15.5 59 +27 +36 жарко 1011.7 874.1
00 22.01 ЮВ 1 30 км 5/0
[Ci fib]
+21.4 +15.3 68 +25 +25 комфорт 1010.2 874.1 +9.0 +24.1
03 22.01 штиль 0 30 км ясно +16.5 +13.5 82 +16 +16 1011.8 876.3
06 22.01 штиль 0 30 км ясно +14.3 +12.7 90 +14 +14 1012.2 876.0 +9.0 +24.1
09 22.01 штиль 0 30 км ясно +12.9 +10.6 86 +12 +12 1012.2 875.0
12 22.01 штиль 0 30 км ясно +12.2 +10.2 88 +12 +12 1014.2 875.5 +12.2 +24.1
15 22.01 штиль 0
{2}
30 км 4/0
[Ci fib]
+18.2 +10.4 60 +18 +24 1015.9 876.7
18 22.01 В 2
{4}
30 км 4/0
[Ci fib]
+26.0 +14.9 50 +29 +41 душно 1013.9 876.1 +12.0 +26.4
21 22.01 В 2
{6}
30 км 5/1 600 м
[Cu hum Ci fib]
+25.4 +16.2 57 +29 +35 душно 1010.4 874.3
00 23.01 В 1 30 км 9/6 300 м
[St As op]
+21.0 +16.8 77 +26 +26 душно 1010.5 875.5 +12.0 +26.4

 

Местоположение метеостанции Orizaba (Мексика): широта 18.85 долгота -97.10 высота над уровнем моря 1259 м.

В архиве по умолчанию представлена погода в Orizaba за последнюю неделю. Архивные данные за месяц целиком и за предыдущие месяцы, начиная с января 2011 года, Вы можете получить, выбрав интересующий диапазон дат из раскрывающегося списка и нажав кнопку "Ввод!".

Внимание! Время в таблицах - всемирное. Для получения местного времени необходимо прибавить поправку, которая в Orizaba равна -6 ч.

Смотрите также архив погоды в соседних городах и на ближайших метеорологических станциях:

Погода в Cordoba-In-Veracruz (Мексика) (19 км)
Погода в Jalapa (Мексика) (80 км)
Погода в Verakruz (Мексика) (109 км)
Погода в Puebla (Мексика) (114 км)
Погода в Tlaxcala Airport (Мексика) (130 км)
Погода в Tlaxcala (Мексика) (132 км)
Погода в Huajuapan De Leon (Мексика) (137 км)
Погода в Tulancingo (Мексика) (191 км)
Погода в Oaxaca (Мексика) (204 км)
Погода в Zacatepec (Мексика) (219 км)

Пояснения к столбцам:

Ветер - указаны скорость ветра в м/с - средняя за 10 мин, порывы в срок и между сроками (в фигурных скобках) и направление, откуда дует ветер: С - северный, СВ - северо-восточный, В - восточный, ЮВ - юго-восточный, Ю - южный, ЮЗ - юго-западный, З - западный, СЗ - северо-западный.
Видимость - горизонтальная дальность видимости в метрах или километрах. При видимости от 1 до 10 км при отсутствии осадков обычно наблюдается дымка, при ухудшении видимости до 1 км и менее - туман. В сухую погоду видимость может ухудшаться дымом, пылью или мглою.
Явления - указаны атмосферные явления, наблюдавшиеся в срок или в последний час перед сроком; фигурными скобками обозначены явления, наблюдавшиеся между сроками (за 1-3 часа до срока); квадратными скобками обозначены град или гололедные отложения с указанием их диаметра в мм.
Облачность - указаны через наклонную черту общая и нижняя облачность в баллах и высота нижней границы облаков в метрах; квадратными скобками обозначены формы облаков: Ci - перистые, Cs - перисто-слоистые, Cc - перисто-кучевые, Ac - высококучевые, As - высокослоистые, Sc - слоисто-кучевые, Ns - слоисто-дождевые, Cu - кучевые, Cb - кучево-дождевые. Подробнее классификацию облаков см. в Атласе облаков (PDF).
T - Температура воздуха - температура, измеренная на высоте 2 м над землей.
Td - Температура точки росы - температура, при понижении до которой содержащийся в воздухе водяной пар достигнет насыщения.
f - Относительная влажность воздуха - влажноcть воздуха, измеренная на высоте 2 м над землей.
Te - Эффективная температура - температура, которую ощущает одетый по сезону человек в тени. Характеристика душности погоды. При расчете учитывается влияние влажности воздуха и скорости ветра на теплоощущения человека.
Tes - Эффективная температура на солнце - температура, которую ощущает человек, с поправкой на солнечный нагрев. Характеристика знойности погоды. Зависит от высоты солнца над горизонтом, облачности и скорости ветра. Ночью, в пасмурную погоду, а также при ветре 12 м/с и более поправка равна нулю.
P - Атмосферное давление - приведенное к уровню моря атмосферное давление.
Po - Атмосферное давление - измеренное на уровне метеостанции атмосферное давление.
Tmin - Минимальная температура - минимум температуры воздуха на высоте 2 м над землей.
Tmax - Максимальная температура - максимум температуры воздуха на высоте 2 м над землей.
R - Количество осадков - Количество выпавших осадков за период времени, мм. При наведении курсора мыши на число - период времени, за который выпало указанное количество осадков.
R24 - Количество осадков - Количество выпавших осадков за 24 часа, мм.
S - Снежный покров - Высота снежного покрова, см. При наведении курсора мыши на число - состояние снежного покрова и степень покрытия местности в баллах.